Weather observations for the past three days for
Hattiesburg/Laurel, Hattiesburg-Laurel Regional Airport
Imperial (Metric)
Date Time (cdt) Wind (mph) Vis. (mi.) Weather Sky Cond. Temperature (ºF) Relative Humidity Wind Chill (°F) Heat Index (°F) Pressure Precipitation (in)
Air Dwpt 6 hour altimeter (in) sea level (mb) 1 hr 3 hr 6 hr
Max. Min.
17 17:56 E 3 3.00 Rain Fog/Mist SCT005 BKN012 OVC025 75 75 100% 72 30.04 1017.1
17 16:56 SE 6 10.00 Fair CLR 84.9 75 72% 93 30 1015.6
17 15:56 SE 7 10.00 A Few Clouds FEW002 86 75.9 72% 96 30 1015.6
17 14:56 SE 5 10.00 Fair CLR 84.9 75.9 75% 94 30.02 1016.1
17 13:56 SE 7 10.00 Fair CLR 82.9 75 77% 90 30.02 1016.3
17 12:56 SE 9 10.00 A Few Clouds FEW025 84.9 75.9 87.1 73.9 75% 94 30.03 1016.7
17 11:56 E 14 10.00 Mostly Cloudy SCT021 SCT030 BKN037 86 75.9 72% 96 30.04 1017.0
17 10:56 E 7 10.00 Partly Cloudy FEW015 SCT023 84 77 80% 94 30.06 1017.5
17 09:56 SE 9 10.00 Mostly Cloudy BKN013 82.9 77 82% 92 30.05 1017.1
17 08:56 E 7 10.00 Mostly Cloudy BKN009 80.1 77 90% 86 30.05 1017.1
17 07:56 E 5 9.00 Mostly Cloudy BKN005 BKN019 77 75 94% 78 30.03 1016.7
17 06:56 E 6 6.00 Fog/Mist OVC003 73.9 73.9 73.9 72 100% 30.03 1016.5
17 05:56 E 3 5.00 Fog/Mist OVC003 73.9 73.9 100% 30.01 1016.0
17 04:56 E 5 5.00 Fog/Mist OVC003 73.9 73.9 100% 30.03 1016.5
17 03:56 E 3 10.00 Overcast OVC005 73.9 73.9 100% 30.02 1016.3
17 02:56 E 3 10.00 Overcast FEW011 BKN019 OVC110 73 73 100% 30.02 1016.1
17 01:56 Calm 10.00 Mostly Cloudy BKN110 73 73 100% 30.02 1016.3
17 00:56 E 3 10.00 Fair CLR 72 72 75.9 72 100% 30.02 1016.2
16 23:56 SE 6 10.00 Fair CLR 73 73 100% 30.02 1016.1
16 22:56 SE 7 10.00 Partly Cloudy SCT003 73 73 100% 30.01 1015.9
16 21:56 SE 7 10.00 Partly Cloudy SCT003 73 73 100% 30.01 1015.9
16 20:56 E 6 10.00 A Few Clouds FEW005 73.9 73.9 100% 30 1015.7
16 19:56 SE 6 10.00 Light Rain BKN005 75 75 100% 72 30 1015.5
16 18:56 SE 9 10.00 Overcast OVC003 75.9 75.9 84 73.9 100% 75 30 1015.6
16 17:56 SE 7 10.00 Light Rain BKN005 75.9 75.9 100% 75 30 1015.7
16 16:56 E 5 10.00 Light Rain SCT003 OVC009 75.9 75.9 100% 75 29.98 1014.9
16 15:56 S 7 10.00 Thunderstorm Light Rain FEW007 BKN060 OVC080 73.9 73.9 100% 29.99 1015.2
16 14:56 S 9 10.00 Partly Cloudy FEW026 SCT085 81 78.1 91% 89 29.98 1015.0 0.05
16 13:56 S 5 10.00 Thunderstorm in Vicinity Light Rain CLR 81 78.1 91% 89 29.98 1014.9 0.08
16 12:56 S 18 G 24 8.00 Light Rain BKN036 BKN050 84 77 91 73.9 80% 94 29.98 1015.0
16 11:56 E 10 10.00 Partly Cloudy SCT036 SCT070 89.1 75.9 65% 100 29.98 1014.9
16 10:56 E 8 10.00 Mostly Cloudy BKN030 BKN037 88 77 70% 100 29.99 1015.2
16 09:56 SE 9 10.00 Mostly Cloudy BKN020 84.9 77 77% 95 30 1015.7
16 08:56 E 7 10.00 A Few Clouds FEW014 84 78.1 82% 95 30.01 1015.9
16 07:56 E 3 10.00 Fair CLR 78.1 73.9 87% 81 30.01 1015.9
16 06:56 Calm 10.00 Fair CLR 73.9 71.1 73.9 70 91% 29.99 1015.2
16 05:56 Calm 7.00 Fair CLR 70 70 100% 29.98 1014.9
16 04:56 Calm 6.00 Fog/Mist CLR 71.1 71.1 100% 29.96 1014.3
16 03:56 Calm 6.00 Fog/Mist CLR 71.1 71.1 100% 29.95 1014.0
16 02:56 Calm 8.00 Fair CLR 72 71.1 97% 29.96 1014.2
16 01:56 Calm 10.00 Fair CLR 72 71.1 97% 29.97 1014.4
16 00:56 Calm 10.00 Fair CLR 73 71.1 91 73 94% 29.96 1014.4
15 23:56 Calm 10.00 Fair CLR 73.9 71.1 91% 29.97 1014.5
15 22:56 Calm 10.00 Fair CLR 75.9 71.1 85% 76 29.97 1014.6
15 21:56 Calm 10.00 Fair CLR 78.1 72 82% 80 29.96 1014.3
15 20:56 Calm 9.00 Fair CLR 79 72 79% 82 29.94 1013.5
15 19:56 Calm 10.00 Fair CLR 84 73 70% 90 29.92 1013.0
15 18:56 SE 6 5.00 Fair with Haze CLR 91 70 95 91 50% 97 29.91 1012.7
15 17:56 E 8 10.00 Fair CLR 93 68 44% 97 29.91 1012.6
15 16:56 SE 9 10.00 Fair CLR 93.9 69.1 44% 99 29.92 1012.9
15 15:56 E 12 10.00 A Few Clouds FEW002 95 70 44% 101 29.93 1013.3
15 14:56 SE 9 10.00 A Few Clouds FEW065 93.9 71.1 48% 101 29.95 1013.8
15 13:56 SE 9 10.00 Fair CLR 95 71.1 46% 102 29.97 1014.4
15 12:56 SE 8 10.00 Partly Cloudy FEW060 SCT080 93 71.1 93.9 73 49% 100 29.98 1014.9
15 11:56 Vrbl 6 10.00 A Few Clouds FEW060 93 70 47% 99 29.99 1015.4
15 10:56 NE 5 10.00 Fair CLR 90 73 58% 98 30 1015.7
15 09:56 NE 3 10.00 Fair CLR 88 75 66% 98 30 1015.5
15 08:56 E 3 10.00 Fair CLR 82 73 74% 87 30 1015.7
15 07:56 N 5 10.00 A Few Clouds FEW002 80.1 71.1 74% 84 29.99 1015.3
15 06:56 Calm 10.00 Fair CLR 73.9 70 73.9 69.1 88% 29.98 1014.8
15 05:56 Calm 8.00 Fair CLR 70 69.1 97% 29.96 1014.2
15 04:56 Calm 10.00 Fair CLR 71.1 69.1 94% 29.95 1013.9
15 03:56 Calm 10.00 Partly Cloudy SCT070 71.1 69.1 94% 29.94 1013.6
15 02:56 Calm 10.00 Fair CLR 70 69.1 97% 29.94 1013.6
15 01:56 Calm 10.00 Fair CLR 72 69.1 91% 29.95 1013.9
15 00:56 SE 5 10.00 Fair CLR 72 69.1 91 72 91% 29.96 1014.1
14 23:56 Calm 10.00 A Few Clouds FEW065 73.9 68 82% 29.96 1014.3
14 22:56 Calm 10.00 Fair CLR 73.9 69.1 85% 29.96 1014.3
14 21:56 Calm 10.00 Fair CLR 75 69.1 82% 75 29.95 1013.9
14 20:56 Calm 10.00 Fair CLR 78.1 69.1 74% 80 29.94 1013.5
14 19:56 Calm 10.00 Fair CLR 81 73 77% 86 29.93 1013.2
14 18:56 Calm 10.00 Fair CLR 91 71.1 93 89.1 52% 98 29.92 1012.9
Date Time (cdt) Wind (mph) Vis. (mi.) Weather Sky Cond. Air Dwpt Max. Min. Relative Humidity Wind Chill (°F) Heat Index (°F) altimeter (in) sea level (mb) 1 hr 3 hr 6 hr
6 hour
Temperature (ºF) Pressure Precipitation (in)